Regional Weather Roundup
Issued by NWS

Home | Current Version | Previous Version | Text Only | Print | Product List | Glossary Off
Versions: 1 2 3 4 5 6 7 8 9 10 11 12 13 14 15 16 17 18 19 20 21 22 23 24 25 26 27 28 29 30 31 32 33 34 35 36 37 38 39 40 41 42 43 44 45 46 47 48 49 50

000
ASUS43 KTOP 221708
RWRKS

WEATHER ROUNDUP FOR KANSAS
NATIONAL WEATHER SERVICE GOODLAND KS
1200 PM CDT FRI SEP 22 2017

NOTE:  "FAIR" INDICATES FEW OR NO CLOUDS BELOW 12,000 FEET WITH NO
SIGNIFICANT WEATHER AND/OR OBSTRUCTIONS TO VISIBILITY.

KSZ001>006-013>018-027>032-041>047-221800-
NORTHWEST KANSAS

CITY           SKY/WX    TMP DP  RH WIND       PRES   REMARKS
GOODLAND       MOSUNNY   86  48  26 S24G31    29.80S
HAYS           SUNNY     87  64  46 S18G30    29.83S
HILL CITY      SUNNY     93  60  33 SW26G43   29.79F
RUSSELL        MOSUNNY   89  64  43 S17G29    29.83F
$$

KSZ061>065-074>080-084>089-221800-
SOUTHWEST KANSAS

CITY           SKY/WX    TMP DP  RH WIND       PRES   REMARKS
DODGE CITY     MOSUNNY   86  61  42 S24G31    29.89S
ELKHART          N/A     84  65  52 S18         N/A
GARDEN CITY    SUNNY     90  58  33 SW31G40   29.86F
GREAT BEND     MOSUNNY   88  66  48 S22G29    29.86F
LIBERAL        SUNNY     84  65  52 MISG      29.90F
PRATT          SUNNY     85  66  52 S22G29    29.90F
$$

KSZ066>073-081>083-090>101-221800-
SOUTHEAST KANSAS

CITY           SKY/WX    TMP DP  RH WIND       PRES   REMARKS
CHANUTE        SUNNY     85  70  60 S17G23    29.99F
COFFEYVILLE    SUNNY     85  70  60 S16       29.98F
HUTCHINSON     SUNNY     88  70  55 S21       29.90S
MEDICINE LODGE   N/A     86  68  54 S12G23    29.89F
NEWTON         SUNNY     86  70  58 S18       29.93S
WICHITA INTL   MOSUNNY   88  70  55 S21       29.91F
WICHITA JABRA  SUNNY     87  71  58 S16G25    29.92F
WICHITA MCCONL SUNNY     88  68  51 S20G28    29.93S
WINFIELD       SUNNY     86  72  62 SE15      29.95F
$$

KSZ007>012-019>026-033>040-048>060-102>105-221800-
NORTHEAST KANSAS

CITY           SKY/WX    TMP DP  RH WIND       PRES   REMARKS
CONCORDIA      SUNNY     86  70  58 S20G29    29.85S
EMPORIA        SUNNY     85  70  60 S16       29.95F
LAWRENCE       SUNNY     86  72  62 SE13      29.95F
MANHATTAN      SUNNY     92  70  48 S16G23    29.88S HX  97
MARYSVILLE     SUNNY    N/A N/A N/A S15G21    29.88S
OLATHE IND     SUNNY     85  71  63 S15G21    29.99S
OLATHE EXE     SUNNY     83  71  67 S9        29.99S
SALINA         SUNNY     92  68  45 S18G29    29.86F HX  96
TOPEKA BILLARD SUNNY     87  73  62 S14       29.94S
TOPEKA FORBES  SUNNY     87  72  60 S17G25    29.95S
$$




USA.gov is the U.S. government's official web portal to all federal, state and local government web resources and services.